Location: Praha
(50.0830°N, 14.4670°E)
Time: 20:28:59
(UTC+02:00)

ISS - Pass Details

Date: 05 July 2019
Orbit: 409 x 418 km, 51.6° (Epoch: 20 July)

Event Time Altitude Azimuth Distance (km) Brightness Sun altitude
Exits shadow 04:07:27 - 231° (SW) 1,559 -1.5 -6.8°
Reaches altitude 10° 04:07:40 10° 230° (SW) 1,475 -1.6 -6.8°
Maximum altitude 04:10:53 51° 154° (SSE) 526 -3.4 -6.5°
Drops below altitude 10° 04:14:07 10° 78° (ENE) 1,478 0.0 -6.1°
Sets 04:16:14 0° 73° (ENE) 2,341 1.2 -5.9°
